Starlink 33664

operational
NORAD ID: 63415 Int'l Des: 2025-065 Owner: SPXS Country: US Constellation: starlink
LEOCIRCULAR

About Starlink 33664

Description loading...

Live Position

Loading 3D Globe...

Upcoming Passes

Altitude History

Altitude vs Time

uPlot chart will show altitude changes over time

Two-Line Element Set

1 63415U 25065S 25311.76717870 .00038780 00000-0 14099-2 0 9993
2 63415 43.0015 75.5715 0001381 261.7270 98.3425 15.27614693 34194
Epoch: Nov 7, 2025 • Age: 18 hours

Current Status

Altitude 482.7 km
Velocity 7.63 km/s
Sub-Earth Point -1.87°S, 18.32°E
Launch Date Mar 31, 2025
Age 0.6 years
Type internet

Technical Details

Classification Payload
Mass 575.00 kg
Dry Mass 530.00 kg
Total Mass 575.00 kg
Length 0.30 m
Diameter 4.10 m
Span 29.00 m
Shape Box + pan
Manufacturer SPXS
Bus Type Starlink V2MO
Phase Status In Orbit
Owner/State SPXS/US

Large Constellations

Loading constellations...